EW9318 Weather Reports


time (UTC)temp
C
wind
direction
speed
KPH
gust
KPH
rain 1hr
cm
rain 24hr
cm
rain mn
cm
humidity
%
barometer
mb
20260505094017 10 259 8.0 16.1 0.00 0.03 0.00 65 1001.9
20260505093517 10 261 9.7 16.1 0.00 0.03 0.00 64 1001.8
20260505093018 10 260 8.0 12.9 0.00 0.03 0.00 64 1001.6
20260505092517 10 267 8.0 12.9 0.00 0.03 0.00 64 1001.6
20260505092017 10 284 4.8 12.9 0.00 0.03 0.00 62 1001.3
20260505091537 10 302 3.2 12.9 0.00 0.03 0.00 59 1000.6
20260505091017 10 261 6.4 17.7 0.00 0.03 0.00 59 1001.7
20260505090518 10 281 9.7 17.7 0.00 0.03 0.00 58 1001.7
20260505090017 11 285 6.4 17.7 0.00 0.03 0.00 58 1001.3
20260505085517 11 292 8.0 16.1 0.00 0.03 0.00 58 1001.2
20260505085017 11 290 9.7 16.1 0.00 0.03 0.00 58 1001.2
20260505084518 11 294 8.0 17.7 0.00 0.03 0.00 58 1000.6
20260505084017 11 284 8.0 17.7 0.00 0.03 0.00 58 1000.8
20260505083518 11 295 9.7 16.1 0.00 0.03 0.00 59 1001.1
20260505083017 11 288 11.3 16.1 0.00 0.03 0.00 61 1001.1
20260505082518 11 283 8.0 16.1 0.00 0.03 0.00 61 1000.8
20260505082017 11 284 4.8 11.3 0.00 0.03 0.00 61 1000.2
20260505081517 11 285 4.8 14.5 0.00 0.03 0.00 62 1000.3
20260505081038 11 286 8.0 14.5 0.00 0.03 0.00 61 1000.4
20260505080517 11 293 8.0 17.7 0.00 0.03 0.00 61 1000.6
20260505080016 11 303 11.3 17.7 0.00 0.03 0.00 60 1000.2
20260505075517 11 297 6.4 14.5 0.00 0.03 0.00 61 1000.1
20260505075038 11 305 4.8 14.5 0.00 0.03 0.00 61 1000.1
20260505074537 12 277 4.8 12.9 0.00 0.03 0.00 61 1000.2
20260505074018 12 285 6.4 14.5 0.00 0.03 0.00 61 999.8
20260505073516 12 292 8.0 17.7 0.00 0.03 0.00 60 999.9
20260505073017 12 301 12.9 19.3 0.00 0.03 0.00 60 1000.2
20260505072516 12 288 11.3 20.9 0.00 0.03 0.00 61 1000.2
20260505072017 12 281 9.7 20.9 0.00 0.03 0.00 60 1000.0
20260505071517 12 287 8.0 14.5 0.00 0.03 0.00 64 1000.3
20260505071017 12 274 6.4 20.9 0.00 0.03 0.00 64 1000.2
20260505070516 12 274 12.9 20.9 0.00 0.03 0.00 64 1000.6
20260505070018 12 277 11.3 17.7 0.00 0.03 0.00 63 1000.6
20260505065516 12 287 8.0 17.7 0.00 0.03 0.00 64 1000.2
20260505065016 13 291 11.3 20.9 0.00 0.03 0.00 65 999.9
20260505064516 13 269 9.7 20.9 0.00 0.03 0.00 66 999.9
20260505064037 13 260 9.7 14.5 0.00 0.03 0.00 66 999.8
20260505063516 13 261 8.0 20.9 0.00 0.03 0.00 65 999.4
20260505063017 13 265 11.3 20.9 0.00 0.03 0.00 65 999.6
20260505062517 13 272 8.0 14.5 0.00 0.03 0.00 67 999.9
20260505062016 13 280 8.0 14.5 0.00 0.03 0.00 70 999.9
20260505061517 13 264 6.4 14.5 0.00 0.03 0.00 71 999.8
20260505061016 13 272 8.0 12.9 0.00 0.03 0.00 71 999.8
20260505060536 13 280 8.0 17.7 0.00 0.03 0.00 71 999.8
20260505060057 13 281 8.0 17.7 0.00 0.03 0.00 72 999.7
20260505055518 13 271 9.7 19.3 0.00 0.03 0.00 72 999.4
20260505055018 13 271 11.3 19.3 0.00 0.03 0.00 72 999.3
20260505054518 14 266 9.7 19.3 0.00 0.03 0.00 72 999.0
20260505054016 14 275 11.3 25.7 0.00 0.03 0.00 72 999.1
20260505053516 15 274 12.9 25.7 0.00 0.03 0.00 72 999.0
20260505053018 15 276 12.9 24.1 0.00 0.03 0.00 72 998.9
20260505052516 15 274 11.3 20.9 0.00 0.03 0.00 75 998.7
20260505052016 15 275 11.3 20.9 0.00 0.03 0.00 76 998.7
20260505051517 14 274 9.7 17.7 0.00 0.03 0.00 78 998.7
20260505051016 14 262 11.3 19.3 0.00 0.03 0.00 80 998.6
20260505050516 14 253 9.7 19.3 0.00 0.03 0.00 81 998.5
20260505041516 15 175 3.2 9.7 0.03 0.03 0.00 79 997.9
20260505041016 15 195 4.8 11.3 0.03 0.03 0.00 78 998.0
20260505040516 15 180 4.8 14.5 0.03 0.03 0.00 77 997.9
20260505040016 15 180 4.8 14.5 0.03 0.03 0.03 76 998.1
20260505035515 15 179 8.0 14.5 0.03 0.03 0.03 74 998.1
20260505035017 16 227 6.4 16.1 0.03 0.03 0.03 72 998.3
20260505034537 16 306 8.0 16.1 0.00 0.00 0.00 72 998.8
20260505034017 16 278 8.0 14.5 0.00 0.00 0.00 72 998.8
20260505033518 16 234 6.4 12.9 0.00 0.00 0.00 70 998.3
20260505033017 16 251 6.4 17.7 0.00 0.00 0.00 70 998.2
20260505032517 16 229 8.0 17.7 0.00 0.00 0.00 70 998.0
20260505032017 16 207 4.8 14.5 0.00 0.00 0.00 70 997.8
20260505031538 16 202 6.4 16.1 0.00 0.00 0.00 69 997.7
20260505031017 16 206 9.7 17.7 0.00 0.00 0.00 69 997.6
20260505030517 16 184 8.0 22.5 0.00 0.00 0.00 68 997.5
20260505030018 16 176 8.0 22.5 0.00 0.00 0.00 68 997.4
20260505025516 16 189 9.7 22.5 0.00 0.00 0.00 67 997.4
20260505025017 16 197 8.0 17.7 0.00 0.00 0.00 67 997.2
20260505024516 16 198 8.0 17.7 0.00 0.00 0.00 67 997.1
20260505024017 16 200 8.0 19.3 0.00 0.00 0.00 67 997.0
20260505023518 16 205 9.7 20.9 0.00 0.00 0.00 67 997.1
20260505023017 17 201 9.7 25.7 0.00 0.00 0.00 67 997.2
20260505022516 17 201 11.3 29.0 0.00 0.00 0.00 67 997.3
20260505022016 17 213 9.7 32.2 0.00 0.00 0.00 66 997.4
20260505021517 17 223 14.5 32.2 0.00 0.00 0.00 65 997.7
20260505021017 17 214 14.5 30.6 0.00 0.00 0.00 65 997.6
20260505020518 17 233 14.5 30.6 0.00 0.00 0.00 64 997.7
20260505020016 18 232 14.5 35.4 0.00 0.00 0.00 63 997.6
20260505015516 18 231 20.9 35.4 0.00 0.00 0.00 63 997.4
20260505015057 18 210 17.7 35.4 0.00 0.00 0.00 63 997.0
20260505014537 18 207 14.5 29.0 0.00 0.00 0.00 64 997.0
20260505014016 18 216 14.5 33.8 0.00 0.00 0.00 64 996.8
20260505013536 18 225 19.3 33.8 0.00 0.00 0.00 64 996.6
20260505013017 18 224 14.5 35.4 0.00 0.00 0.00 64 996.5
20260505012517 18 217 17.7 38.6 0.00 0.00 0.00 65 996.4
20260505012016 19 207 12.9 38.6 0.00 0.00 0.00 66 996.4
20260505011517 19 206 11.3 27.4 0.00 0.00 0.00 64 996.4
20260505011016 19 193 12.9 27.4 0.00 0.00 0.00 63 996.2
20260505010516 20 210 12.9 27.4 0.00 0.00 0.00 62 996.2
20260505010016 20 210 16.1 27.4 0.00 0.00 0.00 61 996.1
20260505005516 20 186 16.1 29.0 0.00 0.00 0.00 61 996.0
20260505005017 20 213 14.5 30.6 0.00 0.00 0.00 60 996.1
20260505004517 20 192 14.5 30.6 0.00 0.00 0.00 59 996.3
20260505004017 20 190 12.9 35.4 0.00 0.00 0.00 58 996.4
20260505003516 20 202 14.5 35.4 0.00 0.00 0.00 56 996.6
20260505003016 21 205 14.5 32.2 0.00 0.00 0.00 53 996.5
20260505002516 21 204 17.7 35.4 0.00 0.00 0.00 52 996.5
20260505002016 21 220 16.1 35.4 0.00 0.00 0.00 50 996.3
20260505001517 21 220 20.9 32.2 0.00 0.00 0.00 48 996.1
20260505001016 21 209 16.1 33.8 0.00 0.00 0.00 48 996.0
20260505000516 21 224 20.9 35.4 0.00 0.00 0.00 48 996.0
20260505000056 22 231 20.9 35.4 0.00 0.00 0.00 47 996.1
20260504235536 22 244 22.5 49.9 0.00 0.00 0.00 46 996.1
20260504235016 22 240 22.5 49.9 0.00 0.00 0.00 39 996.1
20260504234516 22 227 14.5 24.1 0.00 0.00 0.00 38 996.1
20260504234017 22 211 9.7 22.5 0.00 0.00 0.00 39 996.1
20260504233516 22 217 6.4 17.7 0.00 0.00 0.00 39 996.0
20260504233016 22 231 9.7 17.7 0.00 0.00 0.00 38 996.0
20260504232516 22 231 11.3 19.3 0.00 0.00 0.00 38 996.1
20260504232016 22 232 11.3 22.5 0.00 0.00 0.00 37 996.1
20260504231518 22 226 12.9 22.5 0.00 0.00 0.00 37 996.2
20260504231016 22 240 12.9 24.1 0.00 0.00 0.00 37 996.3
20260504230518 22 226 14.5 24.1 0.00 0.00 0.00 37 996.3
20260504230016 23 234 14.5 29.0 0.00 0.00 0.00 37 996.4
20260504225516 23 240 17.7 29.0 0.00 0.00 0.00 36 996.4
20260504225016 23 229 16.1 29.0 0.00 0.00 0.00 36 996.6
20260504224536 23 228 14.5 24.1 0.00 0.00 0.00 37 996.6
20260504224016 23 230 12.9 20.9 0.00 0.00 0.00 37 996.7
20260504223517 23 243 12.9 24.1 0.00 0.00 0.00 37 996.8
20260504223016 23 249 12.9 27.4 0.00 0.00 0.00 36 996.8
20260504222516 23 244 17.7 27.4 0.00 0.00 0.00 36 996.9
20260504222016 23 252 17.7 32.2 0.00 0.00 0.00 37 996.9
20260504221536 23 250 22.5 35.4 0.00 0.00 0.00 36 996.9
20260504221016 23 259 17.7 35.4 0.00 0.00 0.00 36 996.9
20260504220516 23 237 20.9 35.4 0.00 0.00 0.00 36 997.0
20260504220016 23 234 19.3 35.4 0.00 0.00 0.00 37 997.0
20260504215536 23 237 16.1 33.8 0.00 0.00 0.00 37 997.0
20260504215016 23 248 20.9 33.8 0.00 0.00 0.00 37 997.1
20260504214516 23 251 16.1 30.6 0.00 0.00 0.00 37 997.1
20260504214016 23 260 19.3 35.4 0.00 0.00 0.00 35 997.2
20260504213517 23 247 22.5 35.4 0.00 0.00 0.00 37 997.3
20260504213016 23 238 20.9 37.0 0.00 0.00 0.00 36 997.4
20260504212536 23 242 22.5 37.0 0.00 0.00 0.00 35 997.5
20260504212016 22 239 22.5 43.5 0.00 0.00 0.00 37 997.5
20260504211016 22 245 25.7 49.9 0.00 0.00 0.00 37 997.7
20260504210516 23 249 22.5 35.4 0.00 0.00 0.00 36 997.8
20260504210016 23 240 16.1 43.5 0.00 0.00 0.00 38 997.9
20260504205637 23 243 22.5 43.5 0.00 0.00 0.00 37 998.0
20260504205016 23 242 17.7 37.0 0.00 0.00 0.00 38 998.1
20260504204516 22 257 24.1 48.3 0.00 0.00 0.00 37 998.1
20260504204016 22 243 29.0 48.3 0.00 0.00 0.00 36 998.2
20260504203516 23 263 27.4 49.9 0.00 0.00 0.00 34 998.1
20260504203036 23 268 29.0 56.3 0.00 0.00 0.00 34 998.3
20260504202517 23 246 29.0 56.3 0.00 0.00 0.00 34 998.4
20260504202017 23 252 22.5 43.5 0.00 0.00 0.00 33 998.5
20260504201516 23 235 24.1 41.8 0.00 0.00 0.00 34 998.5
20260504201016 23 245 22.5 46.7 0.00 0.00 0.00 34 998.4
20260504200516 22 249 29.0 46.7 0.00 0.00 0.00 33 998.4
20260504200036 23 247 22.5 37.0 0.00 0.00 0.00 34 998.4
20260504195516 23 230 22.5 35.4 0.00 0.00 0.00 32 998.5
20260504195056 23 227 24.1 35.4 0.00 0.00 0.00 32 998.5
20260504194516 23 241 20.9 38.6 0.00 0.00 0.00 32 998.5
20260504194016 23 251 22.5 38.6 0.00 0.00 0.00 33 998.7
20260504193517 23 237 22.5 35.4 0.00 0.00 0.00 32 998.6
20260504193016 23 233 16.1 43.5 0.00 0.00 0.00 34 998.6
20260504192516 23 233 22.5 45.1 0.00 0.00 0.00 32 998.8
20260504192017 22 227 25.7 45.1 0.00 0.00 0.00 31 998.8
20260504191537 22 240 25.7 40.2 0.00 0.00 0.00 34 998.8
20260504191016 22 235 20.9 40.2 0.00 0.00 0.00 35 998.8
20260504190537 22 240 27.4 40.2 0.00 0.00 0.00 33 998.8
20260504190016 23 235 22.5 40.2 0.00 0.00 0.00 32 998.8
20260504185519 23 212 19.3 40.2 0.00 0.00 0.00 34 998.8
20260504185017 23 238 24.1 40.2 0.00 0.00 0.00 32 998.8
20260504184516 22 241 22.5 40.2 0.00 0.00 0.00 30 998.8
20260504184017 23 223 19.3 41.8 0.00 0.00 0.00 29 998.9
20260504183516 22 232 25.7 41.8 0.00 0.00 0.00 29 999.0
20260504183017 23 235 24.1 46.7 0.00 0.00 0.00 29 999.0
20260504182516 23 210 20.9 46.7 0.00 0.00 0.00 31 999.0
20260504182015 23 202 17.7 37.0 0.00 0.00 0.00 32 999.0
20260504181516 22 205 19.3 38.6 0.00 0.00 0.00 31 999.0
20260504181015 22 210 17.7 38.6 0.00 0.00 0.00 32 999.1
20260504180537 22 239 20.9 35.4 0.00 0.00 0.00 31 999.1
20260504180016 22 225 20.9 33.8 0.00 0.00 0.00 30 999.2
20260504175516 22 233 20.9 33.8 0.00 0.00 0.00 30 999.2
20260504175015 22 218 17.7 35.4 0.00 0.00 0.00 33 999.2
20260504174517 22 230 20.9 37.0 0.00 0.00 0.00 31 999.3
20260504174016 22 218 19.3 45.1 0.00 0.00 0.00 31 999.4
20260504173516 22 220 22.5 45.1 0.00 0.00 0.00 30 999.4
20260504173016 22 235 19.3 27.4 0.00 0.00 0.00 31 999.5
20260504172556 22 228 14.5 43.5 0.00 0.00 0.00 32 999.6
20260504172015 22 233 20.9 43.5 0.00 0.00 0.00 30 999.7
20260504171537 22 232 17.7 35.4 0.00 0.00 0.00 31 999.7
20260504171015 22 227 19.3 35.4 0.00 0.00 0.00 30 1000.0
20260504170535 22 211 19.3 33.8 0.00 0.00 0.00 31 999.9
20260504151015 18 223 14.5 35.4 0.00 0.00 0.00 49 1001.2
20260504150515 18 226 16.1 35.4 0.00 0.00 0.00 51 1001.2
20260504141015 15 217 9.7 20.9 0.00 0.00 0.00 62 1001.9
20260504140515 15 218 8.0 17.7 0.00 0.00 0.00 63 1001.9
20260504130515 12 235 12.9 22.5 0.00 0.00 0.00 72 1002.4
20260504130155 12 243 9.7 22.5 0.00 0.00 0.00 73 1002.5
20260504110557 7 209 3.2 8.0 0.00 0.00 0.00 88 1002.1
20260504100517 7 0.0 0.0 0.00 0.00 0.00 85 1001.9